User: anonymous   Login
Location: Castifao
(42.5040°N, 9.1124°E)
Time: 20:54:20
(UTC+00:00)
Language:

Cosmos 2263 Rocket - Orbit

View from above orbital plane
View from above orbital plane
View from above satellite
View from above satellite

Ground track
Ground track

The orbit data is extracted from the following two-line orbital elements,

1 22803U 93059B   20088.21026575 -.00000221 +00000-0 -86156-4 0  9994
2 22803 070.9874 270.4768 0019499 278.2940 081.5973 14.16817604371798
Epoch (UTC): 28 March 2020 05:02:46
Eccentricity: 0.0019499
inclination: 70.9874°
perigee height: 822 km
apogee height: 850 km
right ascension of ascending node: 270.4768°
argument of perigee: 278.2940°
revolutions per day: 14.16817604
mean anomaly at epoch: 81.5973°
orbit number at epoch: 37179

The dashed part of the orbit path shows where the satellite is in the earth's shadow,  

DLR